Volver al catálogo

CZ-6A DEB

ActivoSSO
NORAD 56282·DEBRIS·🇨🇳 China

Lanzado Nov 11, 2022 desde Taiyuan Satellite Launch Center

Loading…

Próximos Pases (próximas 24 horas)

TLE

ActualizadoSource: Space-Track

Época: Sep 14, 2026, 07:01 UTC

1 56282U 22151ADA 26257.29295517  .00002507  00000-0  11332-2 0  9992
2 56282  98.8525 269.8684 0069479  99.0224 261.8824 14.21682921180237

Sigue CZ-6A DEB en tiempo real con AllMySat

Download on the App Store